Wind_Speed
32 30 29 28 28 29 31 31 30 28 27 25 23 22 21 19 18 17 15 15 14 14 13 14 13 12 12 11 12 12 11 11 11 10 10 11 12 12 13 12 12 12 12 12
32 31 30 29 28 28 29 29 29 28 27 25 23 23 21 20 19 18 17 16 15 15 15 14 13 12 12 11 11 11 11 11 11 10 11 12 13 13 13 13 12 12 12 12
33 32 31 30 28 28 29 30 29 29 27 26 25 24 22 21 20 18 17 17 16 16 15 15 14 13 12 12 13 12 12 12 12 12 12 12 13 14 13 13 14 13 14 14
34 33 33 29 27 28 29 29 29 28 28 27 26 25 24 23 22 22 20 19 18 18 17 16 16 15 14 14 14 14 14 14 13 13 13 13 14 15 14 14 14 14 16 16
36 36 34 30 28 29 29 28 28 28 27 28 27 27 27 25 24 22 21 20 19 19 18 18 17 16 16 15 15 15 15 15 14 14 14 14 15 16 15 15 15 16 17 18
37 38 37 33 31 29 30 30 29 28 28 28 28 28 26 25 25 23 22 21 20 19 18 18 17 17 17 16 16 16 15 15 16 16 16 16 17 17 17 17 17 17 18 19
38 38 38 36 34 32 33 31 29 29 28 28 28 27 26 25 25 22 21 21 19 18 18 18 18 18 17 17 16 16 16 16 17 17 17 18 18 18 18 18 18 19 19 20
38 38 37 36 36 35 33 30 29 29 29 29 29 28 27 26 24 22 22 20 19 18 18 18 18 18 17 17 17 17 17 17 18 18 19 19 19 19 19 20 20 20 20 21
36 37 36 35 34 34 34 32 30 31 31 31 30 29 28 27 25 23 22 21 20 20 19 19 18 18 17 17 17 17 17 18 18 19 19 18 19 19 20 21 21 21 21 22
35 36 35 35 34 34 33 32 31 31 30 30 29 29 28 27 26 24 23 22 21 20 19 19 18 18 18 17 17 17 17 18 18 18 18 18 19 20 20 20 21 21 21 22
34 34 34 35 35 35 34 33 31 30 30 29 29 29 28 26 25 23 22 22 21 20 19 19 18 18 17 17 18 18 18 19 19 18 18 19 19 19 19 20 20 21 21 21
33 32 33 34 34 33 32 31 31 31 30 29 28 28 27 26 25 23 22 21 20 20 19 19 19 18 18 19 19 19 19 19 19 19 19 19 19 20 20 20 20 20 21 21
33 33 32 32 32 32 31 29 29 29 28 28 27 27 26 25 24 22 22 21 21 20 20 20 19 19 19 20 20 20 19 19 19 19 19 19 20 20 20 20 20 21 22 22
33 33 32 31 30 30 29 27 25 26 27 27 26 25 24 24 23 22 22 21 21 21 21 20 20 20 20 20 19 19 19 20 19 19 19 20 20 21 21 22 22 23 23 24
31 32 31 31 30 28 26 25 25 25 25 25 25 25 24 24 23 22 22 22 21 21 21 21 20 20 21 21 20 20 20 20 20 20 20 20 21 21 22 23 23 24 23 23
31 31 30 30 29 27 25 25 24 24 24 24 24 24 24 24 23 22 22 22 21 21 21 21 21 21 21 21 21 21 21 21 20 20 21 21 22 22 23 24 24 23 23 23
31 30 30 29 29 28 27 26 25 24 24 24 24 24 24 24 23 22 22 22 21 21 21 22 22 22 21 21 21 21 20 20 20 21 21 21 21 22 23 23 24 23 23 24
30 29 28 27 27 26 26 26 26 25 24 23 23 23 24 24 23 23 22 22 22 22 22 22 22 21 21 20 20 20 19 19 20 20 20 21 21 22 23 23 23 23 24 25
28 27 27 27 27 26 26 26 26 26 25 25 24 24 24 24 23 22 22 22 22 21 21 21 21 19 19 19 20 19 19 20 20 20 21 21 22 22 22 23 23 24 26 27
27 28 27 28 28 28 28 27 26 26 25 24 23 23 22 22 22 21 21 21 21 20 20 19 19 19 18 19 19 19 20 20 20 21 21 22 22 23 24 24 25 26 26 27
25 27 27 28 28 28 27 27 27 26 25 24 23 23 23 22 22 21 21 20 20 20 20 19 19 19 18 19 19 20 20 20 21 22 22 23 23 24 25 25 25 26 26 27
24 24 25 25 26 26 26 26 26 25 25 25 24 24 23 22 21 21 20 20 20 20 19 19 19 19 19 20 20 20 20 20 21 22 23 24 24 24 25 25 26 26 26 27
23 23 23 23 24 25 25 25 25 25 25 24 24 23 22 21 20 20 20 20 21 20 20 19 19 20 20 20 20 20 21 21 22 23 23 23 24 24 25 25 25 25 26 26
21 21 21 22 22 23 23 23 23 22 22 22 22 22 22 21 21 20 20 20 20 20 19 19 20 20 19 19 19 20 20 20 21 22 22 22 23 23 23 24 24 25 26 26
20 20 19 20 21 21 21 21 21 21 21 21 21 21 21 20 20 19 19 19 19 19 18 18 17 17 18 18 18 19 20 20 20 21 21 22 23 23 23 24 24 25 25 26
18 18 18 18 18 19 20 20 19 19 19 20 20 20 20 19 19 17 17 17 17 17 17 16 17 17 18 18 19 19 19 19 19 20 20 21 21 22 23 23 24 24 25 26
18 17 17 17 17 18 18 18 18 18 17 18 18 18 18 18 17 17 16 15 15 16 16 16 17 17 17 17 18 18 18 19 19 19 20 20 21 22 23 23 23 24 25 26
Wind_Direction
213 214 215 215 216 219 222 224 225 227 232 235 241 247 254 257 259 267 269 273 279 281 282 285 287 289 292 290 293 289 291 294 294 295 297 299 303 302 302 301 302 300 299 297
211 214 215 215 214 216 219 222 224 226 229 233 239 246 257 259 264 263 270 273 277 279 282 285 286 285 286 286 290 287 291 298 296 295 298 302 304 305 301 299 299 302 304 300
208 213 216 217 215 215 216 220 222 224 227 231 236 242 253 261 267 261 266 269 274 280 283 284 285 287 289 287 287 285 287 292 293 294 297 303 307 307 299 296 297 298 294 298
207 211 216 217 217 217 217 218 221 223 224 230 237 244 252 262 264 261 262 265 272 277 281 282 283 284 285 285 282 284 286 290 292 293 294 297 303 303 300 297 295 296 296 299
208 211 215 213 215 216 218 219 220 223 226 230 236 244 251 254 258 262 263 268 272 275 277 280 281 282 283 283 281 282 286 289 290 294 295 297 299 299 297 297 296 296 295 296
209 212 215 213 215 217 221 222 222 224 228 232 238 243 249 255 258 263 263 267 270 271 273 276 278 279 280 281 280 281 283 287 288 290 292 294 294 294 293 293 294 294 295 296
211 213 217 217 217 219 222 224 224 225 229 235 241 245 250 256 260 264 269 269 270 272 271 272 274 276 277 279 280 281 284 286 287 289 291 292 292 293 292 293 293 293 295 296
212 214 215 217 218 220 223 225 226 228 232 236 242 245 250 256 261 264 266 270 271 272 270 269 270 273 275 277 279 282 285 286 286 287 289 290 291 292 292 291 291 291 292 294
213 215 214 216 219 221 223 225 226 228 232 235 240 243 249 255 260 263 266 268 270 269 267 267 269 272 274 276 279 282 284 287 287 288 289 287 289 290 291 291 292 291 291 293
214 214 214 216 219 222 224 225 227 228 230 235 240 243 247 252 258 261 263 265 267 264 262 263 267 270 273 275 277 281 284 287 289 289 288 288 289 292 292 293 293 292 294 295
217 216 215 218 221 223 225 227 229 230 232 237 241 244 248 253 257 260 261 262 263 261 260 261 264 269 272 275 279 281 283 286 289 290 291 293 295 296 296 296 296 295 295 297
220 219 220 220 221 225 227 228 227 230 235 240 242 245 248 253 256 257 257 258 259 261 262 262 264 268 272 276 280 280 282 285 288 291 294 296 296 296 297 297 295 295 295 297
222 221 223 223 223 225 229 228 228 230 235 238 242 246 250 252 254 255 256 256 256 259 262 263 265 269 272 275 278 280 284 287 289 291 293 294 295 296 297 298 298 297 298 297
224 226 229 229 230 228 228 227 228 232 234 238 241 245 248 249 251 253 255 255 257 260 264 266 267 268 271 275 279 282 286 290 291 291 293 293 294 296 297 298 300 300 300 300
222 226 230 231 232 230 228 229 231 233 235 238 240 242 245 248 251 253 256 258 259 263 266 268 270 271 273 278 282 283 285 288 290 291 292 292 294 296 298 299 300 300 301 301
224 227 227 227 227 227 230 232 234 236 238 239 240 243 245 248 251 254 256 258 260 263 266 268 269 271 274 278 280 281 283 285 287 289 291 293 294 296 298 300 301 302 301 302
226 228 228 229 227 228 229 232 234 235 237 239 241 242 245 248 251 254 257 258 261 263 265 267 268 270 273 276 278 279 281 282 284 287 289 291 293 294 297 300 301 302 303 304
228 229 227 228 228 228 229 232 235 236 239 242 243 245 248 250 252 256 261 262 263 264 265 266 267 271 274 275 277 279 282 285 285 286 289 292 294 296 298 300 300 301 303 305
230 230 230 231 230 230 231 233 235 237 240 243 245 248 250 252 254 256 261 262 262 263 264 266 268 270 272 275 277 279 282 284 286 287 290 293 295 298 299 300 300 301 303 305
231 230 231 231 231 232 233 235 236 237 238 241 244 248 250 251 253 256 258 259 259 259 261 264 268 270 272 274 277 279 282 284 286 289 291 294 295 297 299 301 301 302 303 305
233 231 230 230 230 231 233 234 236 236 237 240 244 247 248 249 251 254 255 258 258 259 261 264 267 269 271 274 276 278 280 284 287 289 292 293 294 296 299 301 302 303 305 306
229 229 229 227 227 229 232 233 233 234 237 239 241 244 245 247 250 252 254 257 258 261 263 265 267 268 272 275 276 279 281 285 289 289 290 291 293 296 299 300 301 303 305 306
225 227 227 226 226 228 229 229 231 233 235 236 237 239 242 245 248 251 253 255 258 261 263 266 268 270 273 276 277 280 282 285 288 290 292 293 294 296 299 300 301 303 306 307
222 222 221 221 222 224 226 227 229 231 233 234 234 237 240 242 246 250 252 255 258 259 261 264 267 269 271 274 277 280 283 287 288 289 292 294 297 298 300 301 302 305 307 308
216 215 216 219 220 222 224 226 227 229 230 233 234 236 240 244 247 250 252 254 255 257 260 263 265 269 272 275 279 281 284 287 290 290 291 294 296 297 299 300 301 303 306 308
212 213 215 217 218 220 221 221 222 225 228 231 232 235 238 241 244 246 248 250 253 257 260 262 265 268 270 272 277 282 285 287 289 290 292 294 296 297 299 300 302 305 306 308
209 210 211 210 210 212 214 216 219 224 227 229 230 231 233 237 240 242 245 249 254 257 259 261 263 267 271 274 280 284 285 287 289 292 296 297 298 299 300 302 304 306 308 309
Height
5841 5846 5851 5855 5859 5863 5866 5871 5875 5879 5881 5884 5886 5887 5889 5890 5891 5892 5894 5894 5895 5896 5896 5896 5895 5895 5894 5893 5892 5891 5890 5888 5888 5887 5886 5886 5884 5883 5882 5880 5879 5878 5877 5876
5837 5841 5845 5849 5853 5857 5862 5866 5870 5874 5877 5880 5882 5882 5885 5886 5886 5887 5889 5890 5892 5892 5892 5892 5892 5892 5891 5890 5890 5889 5888 5887 5885 5885 5884 5883 5881 5880 5878 5876 5875 5874 5873 5872
5832 5836 5840 5845 5849 5853 5857 5860 5865 5868 5873 5875 5877 5879 5881 5882 5883 5884 5886 5887 5888 5888 5889 5888 5888 5888 5887 5887 5886 5885 5884 5883 5882 5882 5881 5879 5878 5876 5874 5873 5872 5871 5870 5869
5828 5833 5836 5843 5846 5848 5852 5856 5860 5864 5867 5870 5873 5875 5877 5878 5879 5879 5880 5882 5883 5884 5884 5884 5884 5884 5883 5883 5882 5881 5880 5879 5879 5878 5877 5876 5874 5873 5871 5869 5868 5867 5866 5865
5823 5826 5831 5837 5840 5843 5847 5851 5855 5859 5862 5865 5868 5870 5871 5873 5874 5874 5876 5877 5879 5879 5879 5879 5879 5879 5879 5878 5878 5877 5876 5876 5875 5874 5873 5872 5870 5869 5867 5866 5865 5864 5863 5861
5817 5821 5826 5832 5835 5839 5843 5846 5850 5853 5857 5859 5863 5865 5868 5868 5868 5869 5871 5872 5874 5874 5874 5874 5874 5874 5874 5873 5873 5873 5872 5872 5871 5870 5869 5868 5866 5865 5863 5862 5861 5859 5858 5856
5811 5815 5821 5827 5830 5835 5839 5842 5845 5848 5852 5855 5858 5861 5863 5863 5864 5865 5866 5867 5868 5869 5869 5870 5870 5869 5869 5869 5868 5868 5867 5867 5866 5865 5864 5863 5861 5860 5859 5857 5856 5854 5853 5851
5805 5810 5817 5821 5826 5830 5833 5838 5841 5844 5847 5850 5852 5855 5857 5859 5860 5861 5862 5863 5863 5864 5864 5864 5864 5865 5864 5864 5863 5863 5862 5862 5861 5860 5859 5857 5856 5855 5854 5852 5850 5849 5848 5846
5801 5806 5812 5816 5820 5824 5828 5832 5836 5840 5842 5845 5847 5850 5852 5853 5855 5856 5857 5858 5858 5859 5859 5859 5859 5860 5859 5859 5858 5858 5857 5856 5855 5854 5853 5852 5851 5850 5848 5846 5845 5843 5842 5840
5795 5800 5806 5811 5815 5819 5823 5827 5830 5834 5837 5840 5842 5844 5846 5848 5849 5850 5851 5852 5853 5853 5853 5854 5854 5854 5854 5854 5853 5853 5852 5851 5850 5849 5847 5846 5845 5844 5842 5840 5839 5837 5835 5834
5789 5795 5800 5805 5809 5813 5817 5820 5823 5827 5831 5834 5836 5839 5841 5843 5843 5844 5845 5847 5847 5848 5848 5849 5849 5849 5849 5849 5848 5847 5846 5846 5844 5843 5842 5841 5839 5838 5836 5834 5833 5831 5829 5828
5785 5790 5795 5799 5804 5807 5810 5813 5816 5821 5825 5828 5830 5833 5835 5837 5838 5839 5840 5841 5842 5842 5843 5843 5843 5844 5844 5843 5843 5842 5841 5840 5839 5838 5837 5835 5834 5832 5831 5829 5827 5825 5824 5822
5780 5784 5789 5793 5797 5800 5803 5806 5810 5815 5819 5822 5824 5827 5829 5831 5832 5833 5834 5835 5836 5837 5837 5837 5838 5838 5838 5838 5837 5836 5835 5834 5833 5832 5831 5830 5829 5827 5826 5824 5822 5820 5818 5815
5774 5778 5782 5787 5791 5794 5798 5801 5805 5809 5812 5815 5818 5821 5823 5825 5826 5827 5828 5829 5830 5831 5831 5832 5832 5832 5832 5832 5831 5830 5830 5829 5828 5827 5826 5825 5823 5822 5820 5818 5816 5814 5811 5808
5768 5772 5776 5780 5784 5788 5792 5796 5799 5803 5806 5809 5812 5815 5817 5818 5820 5821 5822 5823 5824 5825 5825 5826 5826 5826 5826 5826 5826 5825 5824 5824 5823 5822 5820 5819 5818 5816 5814 5812 5810 5807 5804 5802
5762 5766 5770 5773 5778 5782 5786 5790 5794 5798 5801 5804 5806 5809 5810 5812 5813 5815 5816 5817 5818 5818 5819 5820 5820 5820 5820 5820 5820 5819 5819 5818 5817 5816 5815 5813 5812 5810 5808 5806 5803 5800 5798 5795
5756 5760 5764 5767 5772 5776 5780 5784 5789 5792 5795 5797 5800 5802 5804 5806 5807 5808 5809 5810 5811 5812 5813 5813 5814 5814 5814 5814 5814 5813 5813 5812 5811 5810 5809 5808 5806 5805 5802 5800 5797 5794 5792 5789
5751 5755 5758 5762 5766 5770 5774 5778 5782 5785 5788 5791 5793 5795 5797 5799 5801 5802 5803 5804 5805 5806 5806 5807 5808 5808 5808 5808 5808 5807 5807 5806 5805 5804 5803 5802 5800 5798 5796 5794 5791 5788 5785 5782
5745 5749 5752 5756 5760 5764 5768 5772 5775 5779 5782 5784 5787 5789 5791 5792 5794 5796 5797 5798 5798 5799 5800 5801 5801 5802 5801 5801 5801 5801 5801 5800 5799 5798 5797 5796 5794 5792 5790 5787 5784 5781 5778 5775
5739 5743 5746 5750 5754 5758 5761 5765 5768 5772 5775 5777 5780 5782 5784 5786 5788 5789 5790 5791 5792 5794 5795 5795 5796 5796 5796 5796 5796 5796 5795 5794 5793 5792 5791 5789 5787 5785 5783 5780 5778 5775 5771 5768
5732 5736 5740 5743 5747 5751 5754 5758 5762 5765 5768 5771 5774 5776 5778 5780 5781 5783 5784 5786 5787 5788 5789 5789 5790 5790 5790 5790 5790 5790 5789 5788 5787 5786 5784 5783 5781 5778 5776 5773 5770 5767 5764 5761
5726 5729 5732 5736 5740 5744 5748 5752 5755 5758 5762 5764 5767 5769 5772 5774 5775 5777 5778 5780 5781 5782 5783 5784 5784 5784 5785 5785 5784 5784 5783 5782 5781 5779 5778 5776 5774 5771 5769 5766 5764 5760 5757 5754
5720 5723 5726 5730 5734 5738 5741 5745 5749 5752 5755 5758 5761 5763 5766 5768 5770 5771 5773 5774 5776 5776 5777 5778 5778 5778 5779 5779 5778 5778 5777 5776 5774 5773 5771 5769 5767 5765 5762 5760 5757 5754 5750 5747
5715 5718 5721 5725 5729 5732 5736 5739 5743 5746 5749 5752 5755 5758 5760 5762 5764 5766 5767 5768 5770 5771 5771 5772 5772 5773 5773 5773 5772 5772 5771 5769 5768 5766 5765 5763 5761 5758 5756 5753 5750 5747 5744 5740
5711 5714 5717 5721 5724 5728 5731 5734 5737 5741 5744 5747 5750 5752 5754 5756 5758 5760 5761 5763 5764 5765 5766 5766 5767 5767 5767 5767 5766 5766 5765 5763 5762 5760 5758 5756 5754 5752 5749 5746 5743 5740 5737 5733
5708 5711 5714 5717 5720 5724 5727 5730 5733 5736 5739 5742 5744 5747 5749 5751 5753 5755 5756 5757 5758 5759 5760 5761 5761 5761 5761 5761 5761 5760 5758 5757 5755 5754 5752 5750 5748 5745 5743 5740 5737 5734 5730 5727
5705 5708 5711 5714 5717 5720 5723 5726 5729 5732 5734 5737 5740 5742 5744 5746 5748 5750 5751 5752 5753 5754 5755 5756 5756 5756 5756 5755 5755 5754 5752 5751 5749 5748 5746 5744 5741 5739 5736 5733 5730 5727 5724 5720